| time (UTC) | temp F | wind direction | speed MPH | gust MPH | rain 1hr in | rain 24hr in | rain mn in | humidity % | barometer mb |
| 20260507155000 | 72 | 240 | 4.0 | 16.0 | 0.00 | 0.00 | 0.00 | 38 | 1016.8 |
| 20260507152959 | 71 | 242 | 7.0 | 17.0 | 0.00 | 0.00 | 0.00 | 39 | 1016.7 |
| 20260507152000 | 71 | 248 | 7.0 | 16.0 | 0.00 | 0.00 | 0.00 | 39 | 1016.7 |
| 20260507151000 | 71 | 248 | 10.0 | 18.0 | 0.00 | 0.00 | 0.00 | 39 | 1016.9 |
| 20260507145000 | 72 | 252 | 13.0 | 18.0 | 0.00 | 0.00 | 0.00 | 41 | 1016.6 |
| 20260507144000 | 72 | 247 | 13.0 | 17.0 | 0.00 | 0.00 | 0.00 | 40 | 1016.4 |
| 20260507143000 | 73 | 246 | 13.0 | 19.0 | 0.00 | 0.00 | 0.00 | 40 | 1016.4 |
| 20260507142000 | 73 | 249 | 13.0 | 17.0 | 0.00 | 0.00 | 0.00 | 41 | 1016.3 |
| 20260507141000 | 73 | 251 | 16.0 | 22.0 | 0.00 | 0.00 | 0.00 | 41 | 1016.4 |
| 20260507140000 | 72 | 252 | 15.0 | 18.0 | 0.00 | 0.00 | 0.00 | 41 | 1016.3 |
| 20260507135000 | 72 | 251 | 15.0 | 18.0 | 0.00 | 0.00 | 0.00 | 42 | 1016.6 |
| 20260507134000 | 73 | 248 | 16.0 | 19.0 | 0.00 | 0.00 | 0.00 | 39 | 1016.6 |
| 20260507133000 | 75 | 250 | 14.0 | 22.0 | 0.00 | 0.00 | 0.00 | 37 | 1016.6 |
| 20260507130000 | 75 | 254 | 13.0 | 20.0 | 0.00 | 0.00 | 0.00 | 37 | 1016.6 |
| 20260507125000 | 76 | 261 | 14.0 | 23.0 | 0.00 | 0.00 | 0.00 | 37 | 1016.6 |
| 20260507122959 | 75 | 263 | 15.0 | 23.0 | 0.00 | 0.00 | 0.00 | 32 | 1016.7 |
| 20260507122000 | 76 | 260 | 14.0 | 18.0 | 0.00 | 0.00 | 0.00 | 32 | 1016.9 |
| 20260507121000 | 75 | 264 | 16.0 | 24.0 | 0.00 | 0.00 | 0.00 | 34 | 1016.9 |
| 20260507120000 | 74 | 265 | 19.0 | 23.0 | 0.00 | 0.00 | 0.00 | 37 | 1017.1 |
| 20260507114000 | 75 | 270 | 17.0 | 25.0 | 0.00 | 0.00 | 0.00 | 34 | 1017.1 |
| 20260507113000 | 75 | 272 | 17.0 | 22.0 | 0.00 | 0.00 | 0.00 | 37 | 1017.0 |
| 20260507112000 | 75 | 270 | 17.0 | 25.0 | 0.00 | 0.00 | 0.00 | 38 | 1016.9 |
| 20260507111000 | 75 | 270 | 16.0 | 22.0 | 0.00 | 0.00 | 0.00 | 41 | 1016.9 |
| 20260507110000 | 75 | 268 | 16.0 | 18.0 | 0.00 | 0.00 | 0.00 | 39 | 1016.8 |
| 20260507104000 | 75 | 273 | 16.0 | 19.0 | 0.00 | 0.00 | 0.00 | 39 | 1016.8 |
| 20260507103000 | 74 | 268 | 17.0 | 18.0 | 0.00 | 0.00 | 0.00 | 35 | 1016.7 |
| 20260507102000 | 75 | 270 | 15.0 | 22.0 | 0.00 | 0.00 | 0.00 | 38 | 1016.7 |
| 20260507101000 | 75 | 278 | 15.0 | 20.0 | 0.00 | 0.00 | 0.00 | 39 | 1016.5 |
| 20260507095000 | 75 | 270 | 15.0 | 22.0 | 0.00 | 0.00 | 0.00 | 33 | 1016.4 |
| 20260507094000 | 75 | 270 | 16.0 | 19.0 | 0.00 | 0.00 | 0.00 | 34 | 1016.7 |
| 20260507093000 | 74 | 270 | 17.0 | 25.0 | 0.00 | 0.00 | 0.00 | 40 | 1016.8 |
| 20260507092001 | 74 | 265 | 15.0 | 24.0 | 0.00 | 0.00 | 0.00 | 43 | 1016.9 |
| 20260507091000 | 74 | 269 | 15.0 | 20.0 | 0.00 | 0.00 | 0.00 | 41 | 1017.0 |
| 20260507090000 | 74 | 264 | 15.0 | 22.0 | 0.00 | 0.00 | 0.00 | 41 | 1017.0 |
| 20260507085000 | 73 | 261 | 14.0 | 17.0 | 0.00 | 0.00 | 0.00 | 46 | 1016.9 |
| 20260507084000 | 73 | 265 | 15.0 | 19.0 | 0.00 | 0.00 | 0.00 | 45 | 1016.9 |
| 20260507083000 | 73 | 267 | 16.0 | 23.0 | 0.00 | 0.00 | 0.00 | 46 | 1017.0 |
| 20260507082000 | 73 | 270 | 16.0 | 20.0 | 0.00 | 0.00 | 0.00 | 41 | 1016.8 |
| 20260507081000 | 74 | 270 | 16.0 | 23.0 | 0.00 | 0.00 | 0.00 | 40 | 1016.6 |
| 20260507080000 | 74 | 263 | 13.0 | 17.0 | 0.00 | 0.00 | 0.00 | 37 | 1016.6 |
| 20260507075000 | 74 | 262 | 12.0 | 17.0 | 0.00 | 0.00 | 0.00 | 35 | 1016.5 |
| 20260507074000 | 75 | 260 | 10.0 | 18.0 | 0.00 | 0.00 | 0.00 | 35 | 1016.5 |
| 20260507073000 | 75 | 248 | 8.0 | 13.0 | 0.00 | 0.00 | 0.00 | 34 | 1016.5 |
| 20260507072000 | 75 | 265 | 7.0 | 13.0 | 0.00 | 0.00 | 0.00 | 33 | 1016.3 |
| 20260507071000 | 75 | 251 | 6.0 | 11.0 | 0.00 | 0.00 | 0.00 | 33 | 1016.3 |
| 20260507070000 | 74 | 224 | 4.0 | 11.0 | 0.00 | 0.00 | 0.00 | 34 | 1016.4 |
| 20260507064000 | 72 | 90 | 3.0 | 5.0 | 0.00 | 0.00 | 0.00 | 46 | 1016.3 |
| 20260507061000 | 70 | 88 | 5.0 | 8.0 | 0.00 | 0.00 | 0.00 | 53 | 1016.2 |
| 20260507060000 | 69 | 88 | 5.0 | 11.0 | 0.00 | 0.00 | 0.00 | 54 | 1016.2 |
| 20260507055000 | 72 | 148 | 1.0 | 4.0 | 0.00 | 0.00 | 0.00 | 44 | 1016.2 |
| 20260507054000 | 71 | 203 | 1.0 | 6.0 | 0.00 | 0.00 | 0.00 | 47 | 1016.2 |
| 20260507053000 | 70 | 215 | 2.0 | 6.0 | 0.00 | 0.00 | 0.00 | 51 | 1016.2 |
| 20260507052000 | 69 | 233 | 3.0 | 8.0 | 0.00 | 0.00 | 0.00 | 52 | 1016.2 |
| 20260507051000 | 68 | 243 | 5.0 | 12.0 | 0.00 | 0.00 | 0.00 | 56 | 1016.2 |
| 20260507045000 | 67 | 250 | 6.0 | 12.0 | 0.00 | 0.00 | 0.00 | 60 | 1016.0 |
| 20260507044000 | 66 | 255 | 8.0 | 13.0 | 0.00 | 0.00 | 0.00 | 62 | 1015.8 |
| 20260507042000 | 65 | 261 | 3.0 | 12.0 | 0.00 | 0.00 | 0.00 | 63 | 1015.8 |
| 20260507041000 | 64 | 253 | 2.0 | 10.0 | 0.00 | 0.00 | 0.00 | 63 | 1015.6 |
| 20260507040001 | 64 | 268 | 5.0 | 13.0 | 0.00 | 0.00 | 0.00 | 62 | 1015.5 |
| 20260507035000 | 64 | 270 | 6.0 | 12.0 | 0.00 | 0.00 | 0.00 | 63 | 1015.5 |
| 20260507034000 | 64 | 268 | 4.0 | 11.0 | 0.00 | 0.00 | 0.00 | 64 | 1015.5 |
| 20260507032000 | 64 | 265 | 5.0 | 13.0 | 0.00 | 0.00 | 0.00 | 63 | 1015.3 |
| 20260507031000 | 64 | 269 | 5.0 | 11.0 | 0.00 | 0.00 | 0.00 | 62 | 1015.3 |
| 20260507030000 | 64 | 265 | 5.0 | 10.0 | 0.00 | 0.00 | 0.00 | 60 | 1015.1 |
| 20260507024001 | 62 | 317 | 0.0 | 4.0 | 0.00 | 0.00 | 0.00 | 42 | 1014.8 |
| 20260507021000 | 62 | 292 | 1.0 | 5.0 | 0.00 | 0.00 | 0.00 | 44 | 1014.6 |
| 20260507020000 | 62 | 298 | 0.0 | 1.0 | 0.00 | 0.00 | 0.00 | 42 | 1014.5 |
| 20260507015000 | 62 | 301 | 0.0 | 1.0 | 0.00 | 0.00 | 0.00 | 44 | 1014.2 |
| 20260507012001 | 63 | 280 | 1.0 | 7.0 | 0.00 | 0.00 | 0.00 | 39 | 1014.4 |
| 20260507011001 | 63 | 270 | 3.0 | 7.0 | 0.00 | 0.00 | 0.00 | 39 | 1014.4 |
| 20260507010001 | 63 | 270 | 4.0 | 6.0 | 0.00 | 0.00 | 0.00 | 41 | 1014.4 |
| 20260507005001 | 64 | 267 | 5.0 | 10.0 | 0.00 | 0.00 | 0.00 | 40 | 1014.7 |
| 20260507003000 | 63 | 270 | 6.0 | 10.0 | 0.00 | 0.00 | 0.00 | 43 | 1014.8 |
| 20260507002000 | 63 | 266 | 5.0 | 7.0 | 0.00 | 0.00 | 0.00 | 43 | 1014.8 |
| 20260507001000 | 63 | 270 | 5.0 | 8.0 | 0.00 | 0.00 | 0.00 | 42 | 1014.9 |
| 20260507000000 | 64 | 272 | 3.0 | 5.0 | 0.00 | 0.00 | 0.00 | 42 | 1015.0 |
| 20260506235000 | 63 | 267 | 2.0 | 5.0 | 0.00 | 0.00 | 0.00 | 43 | 1014.9 |
| 20260506234000 | 62 | 270 | 1.0 | 5.0 | 0.00 | 0.00 | 0.00 | 44 | 1014.8 |
| 20260506233001 | 64 | 267 | 1.0 | 4.0 | 0.00 | 0.00 | 0.00 | 40 | 1014.9 |
| 20260506232001 | 65 | 264 | 2.0 | 7.0 | 0.00 | 0.00 | 0.00 | 39 | 1015.1 |
| 20260506231001 | 65 | 274 | 2.0 | 7.0 | 0.00 | 0.00 | 0.00 | 39 | 1015.1 |
| 20260506230001 | 66 | 278 | 2.0 | 5.0 | 0.00 | 0.00 | 0.00 | 40 | 1015.1 |
| 20260506224001 | 65 | 278 | 3.0 | 7.0 | 0.00 | 0.00 | 0.00 | 48 | 1015.4 |
| 20260506223001 | 65 | 272 | 5.0 | 11.0 | 0.00 | 0.00 | 0.00 | 49 | 1015.6 |
| 20260506222001 | 66 | 271 | 6.0 | 11.0 | 0.00 | 0.00 | 0.00 | 48 | 1015.6 |
| 20260506221001 | 66 | 270 | 4.0 | 11.0 | 0.00 | 0.00 | 0.00 | 49 | 1015.7 |
| 20260506215001 | 66 | 275 | 3.0 | 7.0 | 0.00 | 0.00 | 0.00 | 50 | 1015.7 |
| 20260506214000 | 66 | 273 | 5.0 | 10.0 | 0.00 | 0.00 | 0.00 | 51 | 1015.6 |
| 20260506213000 | 66 | 275 | 5.0 | 10.0 | 0.00 | 0.00 | 0.00 | 52 | 1015.7 |
| 20260506212000 | 66 | 274 | 6.0 | 8.0 | 0.00 | 0.00 | 0.00 | 51 | 1015.6 |
| 20260506211000 | 66 | 272 | 8.0 | 10.0 | 0.00 | 0.00 | 0.00 | 51 | 1015.6 |
| 20260506205001 | 66 | 271 | 7.0 | 10.0 | 0.00 | 0.00 | 0.00 | 49 | 1015.5 |
| 20260506204001 | 66 | 270 | 7.0 | 11.0 | 0.00 | 0.00 | 0.00 | 49 | 1015.6 |
| 20260506203001 | 66 | 275 | 6.0 | 10.0 | 0.00 | 0.00 | 0.00 | 48 | 1015.5 |
| 20260506202001 | 66 | 274 | 6.0 | 8.0 | 0.00 | 0.00 | 0.00 | 48 | 1015.6 |
| 20260506201001 | 66 | 274 | 6.0 | 8.0 | 0.00 | 0.00 | 0.00 | 48 | 1015.5 |
| 20260506200001 | 66 | 274 | 7.0 | 8.0 | 0.00 | 0.00 | 0.00 | 49 | 1015.5 |
| 20260506195001 | 66 | 273 | 6.0 | 10.0 | 0.00 | 0.00 | 0.00 | 49 | 1015.3 |
| 20260506194001 | 66 | 270 | 5.0 | 11.0 | 0.00 | 0.00 | 0.00 | 50 | 1015.4 |
| 20260506193001 | 65 | 270 | 6.0 | 8.0 | 0.00 | 0.00 | 0.00 | 50 | 1015.3 |
| 20260506191001 | 65 | 272 | 4.0 | 7.0 | 0.00 | 0.00 | 0.00 | 51 | 1015.2 |
| 20260506190001 | 66 | 272 | 5.0 | 8.0 | 0.00 | 0.00 | 0.00 | 51 | 1015.2 |
| 20260506185001 | 66 | 273 | 4.0 | 7.0 | 0.00 | 0.00 | 0.00 | 51 | 1015.0 |
| 20260506184001 | 67 | 276 | 5.0 | 8.0 | 0.00 | 0.00 | 0.00 | 50 | 1015.0 |
| 20260506183001 | 66 | 273 | 5.0 | 8.0 | 0.00 | 0.00 | 0.00 | 51 | 1014.9 |
| 20260506181001 | 66 | 276 | 4.0 | 7.0 | 0.00 | 0.00 | 0.00 | 51 | 1014.8 |
| 20260506180001 | 67 | 275 | 5.0 | 11.0 | 0.00 | 0.00 | 0.00 | 51 | 1014.6 |
| 20260506175001 | 67 | 270 | 6.0 | 10.0 | 0.00 | 0.00 | 0.00 | 51 | 1014.6 |
| 20260506174001 | 67 | 267 | 6.0 | 16.0 | 0.00 | 0.00 | 0.00 | 51 | 1014.4 |
| 20260506172001 | 67 | 266 | 6.0 | 10.0 | 0.00 | 0.00 | 0.00 | 50 | 1014.5 |
| 20260506170001 | 68 | 270 | 3.0 | 11.0 | 0.00 | 0.00 | 0.00 | 51 | 1014.3 |
| 20260506165001 | 68 | 272 | 7.0 | 13.0 | 0.00 | 0.00 | 0.00 | 50 | 1014.3 |
| 20260506163001 | 68 | 272 | 6.0 | 14.0 | 0.00 | 0.00 | 0.00 | 52 | 1014.4 |
| 20260506162001 | 69 | 272 | 8.0 | 13.0 | 0.00 | 0.00 | 0.00 | 51 | 1014.4 |
| 20260506161001 | 69 | 279 | 7.0 | 12.0 | 0.00 | 0.00 | 0.00 | 49 | 1014.4 |